Vorticity
4 -5 4 11 5 4 6 7 4 4 4 5 5 6 6 5 3 5 4 13 9 4 3 3 3 4 5 5 6 7 7 7 7 7 8 7 7 6 6 5 5 5 4
6 10 11 10 5 4 6 7 4 4 4 5 6 7 7 6 5 6 8 7 2 2 3 4 5 5 6 8 7 7 6 6 6 5 6 5 6 6 4 5 6 4 4
3 25 5 8 5 4 6 7 4 4 3 4 7 8 7 7 7 10 6 1 2 3 4 5 6 7 9 8 6 5 5 4 4 4 5 4 4 4 5 3 3 8 8
-4 6 13 6 6 4 6 7 5 4 3 4 7 9 8 13 12 6 1 2 3 4 5 6 7 9 8 6 5 5 5 4 4 4 3 4 4 4 4 3 4 2 3
-8 5 8 14 5 4 5 7 5 4 3 4 8 10 7 9 4 2 2 3 4 5 6 7 8 8 5 4 5 5 6 7 7 7 6 5 5 5 5 6 6 5 5
0 -3 5 19 6 4 6 7 5 4 4 4 10 11 7 3 2 2 3 4 4 5 7 8 9 7 4 3 5 5 6 7 7 7 7 11 11 8 6 6 7 6 5
-5 -7 9 16 7 4 6 7 5 4 4 6 7 7 7 5 4 4 4 4 4 6 7 8 9 6 4 4 5 5 6 6 6 6 7 6 5 6 6 5 6 6 7
9 8 11 15 8 3 6 6 4 5 4 7 6 6 5 5 4 4 4 4 4 6 7 8 8 5 5 5 5 5 6 6 5 4 5 5 5 6 6 5 6 6 6
7 6 10 16 7 4 7 5 3 4 4 6 6 6 6 5 5 4 4 4 5 7 7 7 7 5 5 6 5 5 5 6 5 5 5 5 5 5 5 6 6 6 6
-1 0 8 22 6 3 8 4 3 4 5 5 6 7 7 6 5 5 5 5 5 7 6 6 5 5 6 6 6 5 5 5 5 5 4 4 5 5 5 6 6 6 5
6 6 9 21 7 5 5 3 8 4 6 4 5 6 6 7 6 5 6 6 5 7 6 5 5 5 5 6 6 5 5 5 4 5 4 4 5 5 5 5 5 5 5
29 15 7 15 8 5 4 -0 5 3 6 4 5 5 6 6 6 6 6 6 5 7 5 5 5 5 5 5 5 5 5 4 4 4 4 4 5 5 5 4 5 5 5
23 30 13 13 12 4 8 2 8 1 5 5 4 5 6 6 6 6 6 7 5 7 6 5 6 5 5 5 5 5 4 4 4 4 4 4 4 4 4 4 5 5 6
3 -6 24 29 5 14 7 4 2 2 5 5 5 5 6 6 6 6 7 6 6 7 5 6 5 6 5 5 5 4 4 4 4 3 3 4 4 4 4 5 5 5 5
5 19 25 -7 30 14 7 8 0 5 5 5 5 6 6 6 7 7 7 7 6 7 6 6 5 5 5 5 5 5 4 4 4 4 4 4 4 5 4 4 5 5 5
3 11 -16 9 31 17 5 2 3 3 5 5 6 6 7 7 7 7 8 8 7 7 6 6 6 5 5 4 5 4 5 4 4 3 3 4 4 4 4 5 5 5 5
7 20 25 -60 -30 69 5 -8 12 3 4 6 6 6 6 7 7 8 8 8 7 7 6 7 6 5 5 5 5 4 4 4 4 4 4 4 4 4 4 5 5 5 5
10 12 21 64 -38 -19 54 30 -3 10 5 6 6 7 8 6 7 8 7 8 8 7 6 6 7 5 4 4 4 4 4 4 4 4 4 4 5 4 5 5 5 5 5
17 6 13 21 -13 52 13 27 -9 12 4 7 8 6 7 8 7 7 8 8 7 7 7 6 6 5 5 5 5 4 4 4 4 4 4 4 4 4 4 5 5 5 5
6 9 14 36 20 27 28 52 28 17 7 6 7 7 5 7 7 7 7 7 8 7 7 7 5 6 5 4 5 4 4 3 3 4 4 4 5 5 5 5 4 4 4
7 2 17 21 10 20 41 8 -32 23 2 7 5 7 6 6 7 8 8 8 8 8 8 7 7 6 5 5 4 4 4 4 4 4 4 4 5 4 4 5 4 5 4
7 -6 5 31 5 4 8 19 58 53 2 7 7 8 5 6 7 7 8 8 8 8 7 6 7 7 7 5 5 4 4 4 5 5 3 3 4 5 4 7 6 5 4
9 -3 -1 0 33 -3 4 19 30 -1 15 -1 5 6 7 5 5 6 7 7 8 8 8 8 7 7 5 6 5 4 6 4 7 6 4 5 5 -5 9 9 5 -3 6
19 5 5 -11 -1 12 21 12 9 24 61 2 10 7 7 7 6 6 7 8 8 7 8 7 6 6 6 5 4 5 6 6 4 7 6 8 1 -2 0 6 -5 -0 6
4 25 1 32 -23 12 37 3 3 3 6 100 -17 7 7 7 7 7 7 7 7 7 6 7 7 7 6 6 6 4 4 3 3 6 -3 -7 0 7 23 12 -3 8 14
12 6 18 -1 8 -9 14 49 19 -1 3 6 38 -4 9 7 7 7 6 8 8 8 8 8 7 6 5 4 5 5 5 4 0 -4 1 4 7 12 7 -4 6 14 16
Height
3137 3138 3139 3139 3140 3141 3141 3142 3143 3144 3146 3147 3147 3147 3148 3149 3150 3151 3152 3153 3154 3156 3157 3157 3158 3158 3158 3158 3158 3159 3159 3159 3159 3159 3159 3160 3160 3160 3161 3161 3161 3161 3161
3133 3134 3136 3137 3138 3139 3140 3141 3142 3142 3145 3146 3147 3147 3147 3148 3149 3150 3152 3154 3155 3156 3157 3158 3158 3158 3158 3159 3158 3159 3160 3160 3160 3161 3161 3161 3162 3163 3163 3163 3162 3162 3162
3130 3130 3132 3134 3136 3137 3139 3140 3141 3141 3143 3145 3145 3145 3146 3147 3149 3150 3152 3154 3155 3156 3157 3158 3158 3159 3159 3159 3160 3160 3161 3161 3162 3162 3163 3164 3164 3164 3164 3164 3164 3164 3163
3127 3128 3129 3131 3133 3135 3137 3138 3139 3140 3141 3142 3144 3145 3146 3147 3148 3150 3152 3154 3155 3156 3157 3157 3158 3158 3159 3160 3161 3161 3162 3163 3164 3164 3164 3164 3165 3165 3165 3165 3165 3165 3164
3124 3125 3126 3127 3130 3132 3134 3135 3137 3138 3139 3140 3142 3144 3146 3147 3148 3149 3152 3153 3155 3156 3157 3157 3157 3158 3159 3160 3161 3161 3162 3163 3164 3165 3165 3165 3165 3165 3165 3165 3165 3165 3165
3120 3122 3122 3124 3127 3129 3132 3133 3135 3136 3138 3138 3140 3142 3145 3146 3148 3149 3151 3153 3154 3155 3156 3157 3157 3158 3160 3160 3161 3162 3162 3163 3164 3165 3165 3165 3165 3166 3166 3166 3166 3165 3165
3115 3118 3118 3120 3123 3126 3129 3130 3133 3134 3136 3136 3138 3140 3143 3145 3147 3149 3150 3152 3153 3154 3155 3156 3157 3159 3160 3161 3162 3162 3163 3163 3164 3165 3165 3165 3165 3166 3166 3166 3166 3166 3165
3111 3112 3114 3115 3119 3121 3125 3127 3129 3131 3133 3134 3136 3138 3141 3144 3146 3148 3149 3151 3152 3153 3154 3156 3157 3159 3160 3161 3161 3162 3163 3163 3164 3164 3165 3166 3166 3166 3167 3167 3166 3166 3166
3104 3106 3108 3110 3113 3117 3120 3123 3125 3128 3130 3132 3134 3136 3140 3142 3144 3146 3148 3150 3151 3152 3153 3155 3156 3158 3160 3161 3161 3162 3163 3163 3164 3164 3165 3166 3166 3167 3167 3167 3167 3167 3166
3097 3099 3102 3104 3108 3113 3115 3117 3121 3124 3127 3130 3132 3134 3137 3140 3142 3145 3147 3149 3150 3151 3152 3154 3155 3157 3159 3161 3162 3162 3163 3164 3165 3165 3165 3166 3167 3167 3168 3168 3168 3167 3166
3089 3094 3097 3098 3103 3108 3111 3112 3116 3119 3123 3125 3128 3131 3133 3137 3140 3141 3144 3147 3149 3150 3151 3152 3154 3156 3158 3160 3162 3163 3164 3164 3165 3165 3166 3166 3167 3167 3167 3167 3167 3167 3167
3080 3083 3087 3093 3096 3101 3106 3108 3111 3115 3119 3122 3124 3127 3130 3133 3136 3139 3141 3145 3147 3148 3150 3152 3153 3155 3157 3158 3161 3163 3163 3164 3164 3165 3165 3166 3167 3167 3167 3167 3167 3167 3166
3071 3077 3079 3072 3091 3094 3100 3104 3105 3109 3113 3117 3120 3123 3126 3130 3133 3135 3139 3142 3144 3146 3148 3150 3152 3153 3155 3157 3159 3161 3162 3162 3163 3163 3164 3165 3165 3165 3166 3166 3166 3166 3166
3064 3058 3070 3050 3076 3085 3092 3099 3102 3104 3109 3112 3116 3120 3122 3126 3129 3131 3135 3138 3141 3144 3146 3148 3150 3152 3154 3156 3158 3159 3161 3162 3162 3162 3162 3163 3164 3164 3164 3164 3164 3164 3164
3055 3054 3060 3052 3067 3077 3087 3094 3097 3099 3103 3107 3111 3115 3119 3122 3126 3129 3131 3134 3137 3141 3144 3146 3147 3150 3152 3153 3156 3157 3159 3159 3160 3161 3162 3163 3163 3163 3163 3163 3163 3162 3162
3046 3044 3050 3051 3055 3072 3080 3089 3092 3094 3095 3101 3106 3110 3114 3118 3122 3125 3127 3130 3133 3137 3141 3143 3145 3147 3149 3151 3153 3156 3157 3158 3158 3159 3160 3161 3162 3162 3162 3162 3161 3161 3161
3042 3039 3038 3042 3054 3054 3068 3077 3080 3086 3089 3094 3099 3104 3108 3114 3118 3121 3124 3126 3129 3133 3137 3141 3143 3144 3146 3149 3151 3153 3154 3155 3156 3157 3158 3158 3159 3160 3160 3160 3160 3160 3159
3041 3040 3040 3043 3040 3050 3056 3054 3057 3076 3080 3088 3093 3098 3103 3107 3113 3117 3120 3123 3126 3129 3134 3137 3140 3142 3143 3145 3148 3151 3153 3153 3154 3156 3156 3157 3158 3158 3158 3158 3157 3157 3156
3039 3041 3038 3043 3040 3045 3047 3054 3042 3063 3071 3080 3087 3092 3098 3103 3108 3114 3117 3120 3123 3126 3130 3134 3138 3140 3142 3144 3146 3148 3150 3152 3153 3153 3154 3154 3155 3155 3154 3155 3154 3154 3154
3030 3030 3026 3028 3034 3030 3039 3048 3039 3053 3069 3077 3081 3087 3093 3099 3104 3110 3114 3117 3120 3123 3127 3131 3134 3137 3139 3141 3143 3145 3146 3148 3150 3152 3152 3153 3153 3152 3152 3151 3151 3150 3149
3024 3022 3025 3029 3029 3033 3043 3047 3048 3050 3061 3069 3077 3083 3088 3094 3100 3105 3110 3114 3117 3120 3124 3127 3130 3133 3136 3138 3140 3141 3142 3144 3145 3147 3148 3149 3150 3150 3149 3149 3148 3147 3146
3026 3029 3031 3028 3031 3037 3042 3044 3044 3051 3054 3064 3074 3079 3083 3089 3096 3102 3107 3110 3113 3116 3120 3123 3127 3130 3132 3134 3137 3139 3139 3141 3142 3143 3143 3144 3145 3145 3145 3145 3144 3143 3142
3021 3023 3025 3029 3035 3035 3032 3038 3041 3050 3054 3059 3069 3074 3081 3086 3092 3097 3102 3106 3109 3112 3116 3119 3123 3126 3129 3131 3133 3136 3136 3138 3138 3139 3138 3140 3140 3139 3139 3139 3139 3138 3138
3021 3020 3021 3023 3024 3028 3031 3032 3036 3043 3049 3058 3066 3072 3078 3083 3088 3092 3097 3101 3105 3108 3112 3116 3118 3122 3125 3127 3130 3132 3132 3134 3133 3135 3135 3135 3134 3134 3134 3133 3132 3131 3130
3023 3023 3022 3022 3027 3027 3026 3027 3033 3046 3051 3059 3058 3067 3073 3078 3084 3089 3093 3097 3101 3104 3108 3112 3115 3118 3121 3123 3125 3128 3128 3128 3129 3130 3130 3130 3129 3127 3127 3127 3125 3124 3122
3022 3024 3027 3025 3024 3027 3028 3032 3038 3044 3047 3050 3052 3059 3070 3075 3080 3084 3088 3093 3097 3101 3105 3108 3111 3114 3116 3118 3120 3121 3122 3123 3125 3125 3126 3124 3123 3122 3120 3121 3119 3117 3116